• MPC Preparation (Info)

  • MPEC 2015-S13 : 2015 RP82

    The following Minor Planet Electronic Circular may be linked-to from your own Web pages, but must not otherwise be redistributed electronically.

    A form allowing access to any MPEC is at the bottom of this page.


    Read MPEC 2015-S12 Read MPEC 2015-S14


    M.P.E.C. 2015-S13                                Issued 2015 Sept. 16, 14:21 UT
    
         The Minor Planet Electronic Circulars contain information on unusual
             minor planets and routine data on comets.  They are published
        on behalf of Division F of the International Astronomical Union by the
              Minor Planet Center, Smithsonian Astrophysical Observatory,
                              Cambridge, MA 02138, U.S.A.
    
                 Prepared using the Tamkin Foundation Computer Network
    
                                  MPC@CFA.HARVARD.EDU
                URL https://www.minorplanetcenter.net/    ISSN 1523-6714
    
                                       2015 RP82
    
    Observations:
         K15R82P* C2015 09 12.30087 22 40 32.671+14 41 50.33         21.7 wLES013F51
         K15R82P  C2015 09 12.31338 22 40 31.901+14 41 31.99         22.0 wLES013F51
         K15R82P  C2015 09 12.32584 22 40 31.088+14 41 13.85         21.7 wLES013F51
         K15R82P  C2015 09 12.33833 22 40 30.283+14 40 55.54         21.8 wLES013F51
         K15R82P KC2015 09 13.25407722 39 34.82 +14 18 37.9          22.0 VuES013H21
         K15R82P KC2015 09 13.26542922 39 34.11 +14 18 21.3          21.9 VuES013H21
         K15R82P KC2015 09 13.27762722 39 33.35 +14 18 03.2          22.1 VuES013H21
         K15R82P KC2015 09 14.40061 22 38 27.57 +13 50 52.9          21.6 RoES013291
         K15R82P KC2015 09 14.40546 22 38 27.24 +13 50 44.6          22.0 RoES013291
         K15R82P KC2015 09 14.41030 22 38 26.95 +13 50 37.3          21.3 RoES013291
         K15R82P KC2015 09 16.45418 22 36 32.93 +13 01 25.1          21.6 RoES013291
         K15R82P KC2015 09 16.45850 22 36 32.68 +13 01 20.0                oES013291
    
    Observer details:
    291 LPL/Spacewatch II.  Observers R. A. Mastaler, T. H. Bressi.  1.8-m f/2.7
        reflector + CCD.
    F51 Pan-STARRS 1, Haleakala.  Observers B. Gibson, T. Goggia, N. Primak,
        A. Schultz, M. Willman.  Measurers K. Chambers, S. Chastel, L. Denneau,
        H. Flewelling, M. Huber, E. Lilly, E. Magnier, R. Wainscoat, C. Waters,
        R. Weryk.  1.8-m Ritchey-Chretien + CCD.
    H21 Astronomical Research Observatory, Westfield.  Observer R. Holmes.
        Measurers S. Foglia, L. Buzzi, T. Linder, R. Holmes.  0.81-m f/4.0
        astrograph + CCD.
    
    Orbital elements:
    2015 RP82                                           PHA, Earth MOID = 0.0152 AU
    Epoch 2015 June 27.0 TT = JDT 2457200.5                 MPC
    M  22.62187              (2000.0)            P               Q
    n   0.26200264     Peri.   35.79930     -0.65889227     +0.74552677
    a   2.4187943      Node   193.95092     -0.74984239     -0.66156174
    e   0.6093494      Incl.   24.57187     -0.05997811     +0.08078302
    P   3.76           H   19.2           G   0.15           U   8
    Residuals in seconds of arc
    150912 F51  0.1-  0.2+    150913 H21  0.2-  0.2-    150914 291  0.1-  0.2-
    150912 F51  0.3+  0.0     150913 H21  0.3-  0.3-    150914 291  0.1-  0.4-
    150912 F51  0.0   0.0     150913 H21  0.4-  0.6-    150916 291  0.1+  0.6-
    150912 F51  0.1-  0.1-    150914 291  0.5+  1.0+    150916 291  0.1-  0.5+
    
    Ephemeris:
    2015 RP82                a,e,i = 2.42, 0.61, 25                  q = 0.9449
    Date    TT    R. A. (2000) Decl.     Delta      r     Elong.  Phase     V
    2015 08 17    23 12 29.9 +24 26 07   1.0113  1.8776   136.2    21.9    21.7
    ...
    2015 09 01    22 53 27.1 +19 13 53   1.0487  1.9968   152.0    13.7    21.6
    ...
    2015 09 09    22 44 02.1 +16 02 17   1.0914  2.0588   157.6    10.8    21.6
    ...
    2015 09 15    22 37 53.7 +13 36 27   1.1351  2.1046   158.8     9.9    21.7
    2015 09 16    22 36 58.1 +13 12 24   1.1433  2.1121   158.7     9.9    21.8
    2015 09 17    22 36 04.2 +12 48 27   1.1519  2.1197   158.5    10.0    21.8
    ...
    2015 09 23    22 31 20.1 +10 28 37   1.2090  2.1645   156.0    10.9    22.0
    ...
    2015 10 01    22 26 50.3 +07 36 40   1.3001  2.2233   149.8    13.1    22.3
    ...
    2015 10 16    22 23 54.3 +03 13 45   1.5118  2.3302   135.5    17.5    22.9
    
    A. U. Tomatic                (C) Copyright 2015 MPC           M.P.E.C. 2015-S13
    

    Read MPEC 2015-S12 Read MPEC 2015-S14


    MPEC number:

    Enter an MPEC number in one of the following forms:

    • 1997-B01 (the full form)
    • J97B01 (the packed version of the full form)
    • B01 (the abbreviated form)